パンスターズ彗星

C/2024 C1 ( PanSTARRS )

English version
Home page
Updated on May 15, 2024

---------------------------------------------------------------------

・ プロフィール

発見日 2024年2月9日
発見光度 21.2等
発見者 Pan-STARRS 2 telescope (Haleakala)

・ 写真集

・ 軌道要素

Epoch 2024 Mar. 31.0 TT = JDT 2460400.5
T 2024 Aug. 30.91390 TT                                 Rudenko
q   4.4129310            (2000.0)            P               Q
n   0.02874053     Peri.   94.46768     -0.96915113     -0.03237965
a  10.5553558      Node    83.81293     -0.07295657     -0.90921766
e   0.5819249      Incl.   14.22690     +0.23542181     -0.41506000
P  34.3
>From 64 observations 2023 Dec. 12-2024 May 14, mean residual 0".2.

・ 光度変化

        m1 = 11.0 + 5 logΔ + 10.0 log r

---------------------------------------------------------------------

軌道要素はM.P.E.C. 2024-J304に掲載されたものです。
光度グラフはComet for Windowsで作成したものです。

---------------------------------------------------------------------

Copyright(C) Seiichi Yoshida (comet@aerith.net). All rights reserved.